sat.trackr.live / text

‹ back to catalog

SHIJIAN-6 05B (SJ-6 05B)

NORAD 49962 · 2021-122B

PAYLOAD ACTIVE UNKNOWN

§ Identity

Operator
Country
PRC
Launch date
2021-12-10
Launch site
JSC
Launch vehicle
Mass (kg)
RCS (m²)

External: N2YO · Heavens-Above · Gunter

§ Orbital elements

Epoch: 2026-09-08T21:20:16.214784Z

Period
95.22 min
Inclination
97.3882°
Eccentricity
0.0003080
Mean motion
15.12322256 rev/d
Perigee alt
527.0 km
Apogee alt
531.2 km
Semi-major
6,907.3 km
B*
1.7372e-4
RAAN
229.7566°
Arg perigee
97.5697°
Mean anomaly
262.5884°
Rev number
26,239

§ Raw data

SHIJIAN-6 05B (SJ-6 05B)1 49962U 21122B   26251.88907656  .00002947  00000+0  17372-3 0  99972 49962  97.3882 229.7566 0003080  97.5697 262.5884 15.12322256262396

JSON: /api/v1/satellites/49962 · /tle

For live sub-satellite position, see the globe view (requires WebGL).

§ Visibility from observer

Set your observer location to see the next 7 days of passes ≥ 10°. The values pass through the URL so the page stays shareable.

No JS? Fill the form by hand. The geolocation button needs JavaScript.